This demonstration page uses our WeatherBlox Daily Observations layout. Learn more.

Left ArrowRight Arrow

31.31129, -92.44514

Hourly Observations for October 23, 2015

Temp ( °F °C ) Dew Point ( °F °C ) Humidity (%) Winds ( mph kmh ) Pressure ( in mb ) Visibility ( mi km ) Precip ( " mm )
12:24 am 00:24 Partly Cloudy 72 22.2 69 20.6 91 91 SE 7 11 30.06 1018 10 16 0.00 0.00
12:50 am 00:50 Mostly Cloudy 72 22 70 21 94 94 SE 7 11 30.06 1018 10 16 0.00 0.00
12:53 am 00:53 Mostly Cloudy 72 22.2 69 20.6 91 91 SE 7 11 30.05 1018 10 16 0.00 0.00
1:06 am 01:06 Partly Cloudy 72 22.2 69 20.6 91 91 SE 7 11 30.06 1018 10 16 0.00 0.00
1:53 am 01:53 Partly Cloudy 72 22.2 69 20.6 91 91 ESE 8 13 30.05 1018 10 16 0.00 0.00
2:53 am 02:53 Partly Cloudy 72 22.2 69 20.6 91 91 ESE 7 11 30.04 1017 10 16 0.00 0.00
3:53 am 03:53 Mostly Cloudy 72 22.2 69 20.6 91 91 SE 7 11 30.04 1017 10 16 0.00 0.00
4:53 am 04:53 Mostly Cloudy 72 22.2 69 20.6 91 91 SE 9 15 30.02 1017 10 16 0.00 0.00
5:53 am 05:53 Cloudy 72 22.2 69 20.6 91 91 SE 10 17 30.01 1016 10 16 0.00 0.00
6:06 am 06:06 Cloudy 72 22.2 69 20.6 91 91 SE 9 15 30.00 1016 10 16 0.00 0.00
6:53 am 06:53 Cloudy 72 22.2 69 20.6 91 91 SE 13 20 30.02 1017 10 16 0.00 0.00
7:53 am 07:53 Cloudy 73 22.8 69 20.6 87 87 SE 10 17 30.02 1017 9 14 0.00 0.00
8:53 am 08:53 Cloudy 73 22.8 69 20.6 87 87 SE 10 17 30.04 1017 9 14 0.00 0.00
9:18 am 09:18 Cloudy 74 23.3 70 21.1 88 88 SE 8 13 30.03 1017 9 14 0.00 0.00
9:34 am 09:34 Cloudy 74 23.3 70 21.1 88 88 SSE 10 17 30.03 1017 9 14 0.00 0.00
9:53 am 09:53 Cloudy 75 23.9 70 21.1 84 84 SSE 10 17 30.06 1018 10 16 0.00 0.00
10:53 am 10:53 Cloudy 77 25 70 21.1 79 79 SSE 7 11 30.06 1018 10 16 0.00 0.03
11:53 am 11:53 Cloudy 78 25.6 70 21.1 76 76 SE 10 17 30.05 1018 10 16 0.00 0.03
12:53 pm 12:53 Mostly Cloudy 80 26.7 70 21.1 71 71 SE 10 17 30.03 1017 10 16 0.00 0.00
1:53 pm 13:53 Mostly Cloudy 82 27.8 70 21.1 67 67 SE 13 20 30.00 1016 10 16 0.00 0.00
2:53 pm 14:53 Sunny 82 27.8 69 20.6 65 65 ESE 10 17 29.97 1015 10 16 0.00 0.00
3:53 pm 15:53 Mostly Sunny 82 27.8 68 20 63 63 ESE 9 15 29.96 1015 10 16 0.00 0.00
4:53 pm 16:53 Mostly Cloudy 82 27.8 68 20 63 63 SE 8 13 29.96 1015 10 16 0.00 0.00
5:53 pm 17:53 Sunny 81 27.2 68 20 65 65 E 9 15 29.97 1015 10 16 0.00 0.00
6:53 pm 18:53 Mostly Cloudy with Light Rain 78 25.6 68 20 71 71 SE 7 11 29.98 1015 10 16 0.00 0.03
7:53 pm 19:53 Mostly Clear 76 24.4 69 20.6 79 79 SE 6 9 29.99 1016 10 16 0.00 0.03
8:53 pm 20:53 Clear 77 25 68 20 74 74 SE 7 11 30.00 1016 10 16 0.00 0.00
9:53 pm 21:53 Mostly Cloudy 75 23.9 68 20 79 79 SE 7 11 30.01 1016 10 16 0.00 0.00
10:53 pm 22:53 Clear 76 24.4 68 20 77 77 ESE 10 17 30.02 1017 10 16 0.00 0.00
11:53 pm 23:53 Mostly Cloudy 75 23.9 68 20 79 79 E 9 15 30.01 1016 10 16 0.00 0.00

Powered by AerisWeather